ONEWEB-0006, 44061

Orbit data source: Space-Track

ONEWEB-0006, 44061 is a payload satellite owned by One Web (UK) in LEO that was launched on Wed, 27 Feb 2019 UTC via a SOYUZ-ST-B launch vehicle from the French Guiana (FRGUI). Payload-class satellites include a variety of spacecraft equipped with specific instruments for various scientific and technological missions. These include communications satellites like Starlink; space stations such as the ISS; scientific satellites like the Hubble; Earth observation satellites from companies like Planet Labs, Umbra, and HawkEye 360; GPS; miniature CubeSats for education and research; and military/defense satellites.

Loading next visibility...
Identifier
44061, 2019-010E
Orbit
LEO
Country
Flag of UKUK
Related business
Manufacturer
Airbus/Toulouse
Mission
Operational Commercial Communications
Bus & Motor
ARROW, Unknown motor
Mass
148 kg wet, ~140 kg dry
Launch date (UTC)
2019-02-27 (7 years ago)
Launch vehicle
SOYUZ-ST-B
Launch site
French Guiana (FRGUI)
Object type
Payload
Rocket body
Debris
Shape & HBR
Trap Box + 2 Pan, 6.7 m
Radar Cross Section
3.464 m², Large (>1 m²)

Expand to show TLE details & history
Last TLE update: 16 hours ago

TLE from 16 hours ago
0 ONEWEB-0006
1 44061U 19010E   25312.70070104 -.00000104  00000-0 -30954-3 0  9999
2 44061  87.8965 303.1719 0002084  93.4612 266.6757 13.15548679322435
Epoch: 2025-11-08T16:49Z
TLE epoch observation values (Epoch: 2025-11-08T16:49:00.569Z)
Latitude
-0.00001°
Longitude
2.79298°
Altitude
1,204.757 km
Speed
7.252 km/s
True Right ascension
20h 12m 41s
True Declination
0° 00' 00"
Sunlit
Object was in daylight at epoch
Visualization orbit readout
Latitude
Unknown
Longitude
Unknown
Altitude
Unknown
Speed
Unknown
Apparent Right ascension
Unknown
Apparent Declination
Unknown
Sunlit
N/A
Visualization observer readout
Local Sidereal Time
05:10:39
Azimuth
Unknown
Elevation
Unknown
Doppler factor
Unknown
Orbital elements
Apogee altitude
1,200.461 km
Perigee altitude
1,197.303 km
Semi-major axis
7,577.019 km
Eccentricity
0.00021
Inclination
87.8965°
RAAN
303.1719°
Arg. of periapsis
93.4612°
True anomaly
266.65186°
Mean anomaly
266.6757°
Eccentric anomaly
266.66378°
Mean motion
3.29076 °/min
Orbital period
109.4 mins
BSTAR
-0.00030954
Loading maneuver chart data...
Computing Atmospheric mass density...
Loading historical data...
Loading historical data...
Loading historical data...
Loading historical data...
Loading historical data...
Loading historical data...
Loading historical data...
Other satellites on launch #10 in the year 2019 (2019-02-27 UTC)

Documentation

Showing up to 5 results
|